Regional Weather Roundup
Issued by NWS Jackson, KY

Home | Current Version | Previous Version | Text Only | Print | Product List | Glossary Off
Versions: 1 2 3 4 5 6 7 8 9 10 11 12 13 14 15 16 17 18 19 20 21 22 23 24 25 26 27 28 29 30 31 32 33 34 35 36 37 38 39 40 41 42 43 44 45 46 47 48 49 50

932
ASUS43 KJKL 130410
RWRJKL

EAST KENTUCKY HOURLY WEATHER ROUNDUP
NATIONAL WEATHER SERVICE JACKSON KY
1100 PM EST FRI FEB 12 2016

NOTE: "FAIR" INDICATES FEW OR NO CLOUDS BELOW 12,000 FEET WITH
NO SIGNIFICANT WEATHER AND/OR OBSTRUCTIONS TO VISIBILITY.

* THESE REPORTS ARE NOT UNDER NWS QUALITY CONTROL AND MAY NOT
  REPORT WEATHER SUCH AS PRECIPITATION AND FOG.

KYZ079-080-083-085-087-088-110-112-115-119-120-130500
...EASTERN KENTUCKY...

CITY           SKY/WX    TMP DP  RH WIND       PRES   REMARKS
JACKSON        LGT SNOW  24  16  71 W8G18     30.19R WCI  15
LONDON         FLURRIES  27  18  69 NW10      30.24R WCI  17
SOMERSET*      CLOUDY    28  18  64 NW8G16    30.30R WCI  20
MONTICELLO*    FLURRIES  28  21  75 NW17G23   30.30R WCI  16
WILLIAMSBURG*  CLOUDY    28  19  69 NW5       30.25R WCI  23
MIDDLESBORO*   FLURRIES  30  22  71 NW13G25   30.24R WCI  20
HARLAN APT*    CLOUDY    28  21  74 W12G23    30.19R WCI  18
HAZARD APT*    CLOUDY    23  12  63 W14G20    30.20R WCI  11
BLACK MTN*       N/A     16  16 100 N3          N/A
BIG SANDY*     CLOUDY    28  15  59 NW9G18    30.17R WCI  19
MOREHEAD APT*  MOCLDY    23  14  68 NW16G25   30.25R WCI  10
$$

KYZ035-036-041-042-044-050-067-078-099-130500
...CENTRAL KENTUCKY...

CITY           SKY/WX    TMP DP  RH WIND       PRES   REMARKS
MT STERLING*   LGT SNOW  23  21  93 NW9G16    30.27R VSB 1   WCI  13
DANVILLE*      CLOUDY    27  14  59 NW15G24   30.29R WCI  15
RICHMOND*      CLOUDY    27  12  54 NW20G30   30.26R WCI  13
LEXINGTON      CLOUDY    24  13  62 W20G29    30.27R WCI  10
FRANKFORT      CLOUDY    25   9  50 NW10G20   30.28R WCI  15
$$

KYZ091>093-OHZ055-061-077-WVZ005-015-034-035-042-130500
...SOUTHERN OHIO/WEST VIRGINIA...

CITY           SKY/WX    TMP DP  RH WIND       PRES   REMARKS
COVINGTON      CLOUDY    20  11  68 NW21G29   30.26R WCI   4
COLUMBUS       PTCLDY    16   5  62 NW14      30.18R WCI   2
DAYTON         PTCLDY    15   8  73 NW20G26   30.23R WCI  -2
WILMINGTON     CLOUDY    17   7  64 NW14      30.21R WCI   3
HUNTINGTON     SNOW      23  17  78 NW14G29   30.19R VSB 1/2 WCI  11
CHARLESTON     FLURRIES  26  12  55 NW20G33   30.13R WCI  12
PINEVILLE*       N/A     27  16  65 MISG      30.12R
BECKLEY        MOCLDY    21  13  71 W13G21    30.00S WCI   9
$$

VAZ002-007-008-TNZ017-027-036-066-071-130500
...SOUTHWEST VIRGINIA/EAST TENNESSEE...

CITY           SKY/WX    TMP DP  RH WIND       PRES   REMARKS
BRISTOL        LGT SNOW  29  23  78 W14       30.15R WCI  18
KNOXVILLE      CLOUDY    33  23  66 W13       30.25R WCI  24
OAK RIDGE      CLOUDY    33  20  58 W8G18     30.28R WCI  26
CROSSVILLE     CLOUDY    28  18  66 NW16G25   30.24R WCI  16
NASHVILLE      MOCLDY    32  19  58 NW9       30.37R WCI  24
$$

...KEY TO REMARKS...
VSB - VISIBILITY IN MILES
WCI - WIND CHILL INDEX
HX  - HEAT INDEX

$$




USA.gov is the U.S. government's official web portal to all federal, state and local government web resources and services.